CAPE
0 0 0 0 9 34 4 12 3 3 170 257 82 66 224 346 310 546 541 246 246 313 514 819 794 781 929 1422 1326 1185 998 976
0 0 0 0 1 39 28 11 16 37 72 48 287 336 346 385 743 692 602 605 313 597 700 362 294 1001 515 450 646 1070 1140 961
0 0 0 0 0 10 52 33 17 62 139 112 364 542 668 838 904 742 757 899 863 645 832 1033 863 688 199 727 532 660 1189 977
0 0 0 0 0 0 2 19 23 2 1 337 656 903 969 1060 1109 1299 1291 1247 1112 983 1019 876 657 163 75 24 48 142 734 578
17 1 0 0 0 0 0 1 20 27 245 410 1012 831 854 711 614 793 707 915 1080 1129 1251 1200 660 335 279 145 52 18 23 216
54 6 1 0 0 0 0 1 0 6 470 653 845 833 781 668 444 324 296 270 380 593 812 817 901 816 495 308 131 98 235 126
12 14 9 0 0 0 0 5 26 29 154 574 787 797 779 593 447 303 302 212 116 125 231 427 843 861 600 342 297 369 286 271
65 2 10 15 20 3 0 0 0 23 178 8 714 991 870 698 657 625 436 345 118 37 41 50 172 979 933 832 511 418 658 485
3 27 16 54 68 44 31 36 31 114 286 185 632 886 950 752 582 521 401 205 98 32 22 8 5 53 272 520 661 738 466 350
133 44 28 58 22 31 112 92 79 226 233 388 495 672 800 718 690 551 254 159 91 6 5 3 2 1 2 2 32 71 46 26
23 0 18 62 46 57 68 98 91 201 251 384 548 722 696 658 638 447 213 169 67 2 4 3 1 0 1 2 1 0 3 1
92 5 141 0 0 0 0 186 75 106 331 502 538 569 574 416 391 328 167 19 0 2 1 2 2 0 0 0 0 0 0 0
98 19 0 1 0 0 0 106 99 165 195 408 612 619 379 405 217 126 47 0 0 0 0 0 0 0 0 0 0 0 0 0
118 10 52 0 0 2 106 44 96 217 296 374 268 250 267 227 104 73 16 2 3 1 0 0 0 0 0 0 0 0 0 0
137 314 70 36 152 75 45 36 27 95 151 248 184 199 229 182 79 26 3 0 0 0 0 0 0 0 0 0 0 0 0 0
113 45 1 0 0 0 0 0 0 7 70 123 126 176 227 183 107 37 1 0 0 0 0 0 0 0 0 0 0 0 0 0
55 109 54 16 0 0 0 0 0 0 14 82 137 160 223 213 157 91 12 0 0 0 0 0 0 0 0 0 0 0 0 0
0 3 11 0 0 0 0 0 0 0 0 51 172 218 227 222 203 142 72 1 0 0 0 0 0 0 0 0 0 0 0 0
2 0 1 0 1 0 0 0 0 0 0 0 19 159 258 269 213 127 105 29 1 0 0 0 0 0 0 0 0 0 0 0
CIN
-0 -0 -0 -0 -6 -6 -29 -4 -2 -23 -26 -21 -64 -67 -58 -54 -13 -7 -3 -21 -6 -34 -6 -14 -7 -3 -2 -5 -2 -2 -0 -1
-0 -0 -0 -0 -4 -4 -7 -8 -34 -36 -4 -3 -50 -49 -49 -34 -4 -9 -24 -3 -5 -14 -29 -68 -45 -31 -46 -38 -24 -9 -1 -2
-0 -0 -0 -0 -0 -3 -6 -9 -10 -15 -3 -7 -31 -45 -67 -5 -2 -2 -3 -1 -3 -5 -3 -2 -31 -59 -100 -35 -44 -26 -1 -6
-0 -0 -0 -0 -0 -0 -3 -8 -9 -15 -2 -13 -65 -42 -78 -124 -116 -75 -36 -4 -4 -1 -13 -53 -66 -153 -143 -168 -101 -68 -5 -14
-23 -7 -0 -0 -0 -0 -0 -6 -10 -10 -19 -31 -22 -96 -134 -193 -197 -127 -149 -87 -42 -10 -1 -3 -76 -106 -86 -137 -193 -117 -59 -29
-9 -13 -4 -0 -0 -0 -0 -3 -0 -28 -41 -32 -36 -77 -123 -197 -252 -268 -242 -222 -152 -60 -24 -22 -15 -17 -63 -65 -92 -114 -31 -62
-9 -23 -10 -0 -0 -0 -0 -12 -9 -8 -5 -4 -45 -94 -96 -201 -228 -258 -230 -251 -286 -229 -170 -100 -31 -17 -32 -34 -46 -15 -19 -9
-8 -62 -7 -11 -7 -5 -0 -0 -0 -30 -14 -3 -23 -88 -128 -171 -170 -144 -157 -193 -267 -342 -318 -291 -169 -7 -0 -3 -22 -11 -0 -6
-33 -5 -15 -5 -6 -4 -5 -7 -3 -10 -6 -28 -21 -47 -81 -152 -174 -171 -191 -264 -304 -382 -424 -427 -264 -256 -90 -13 -0 -0 -5 -5
-17 -66 -3 -22 -53 -24 -12 -7 -11 -10 -27 -14 -42 -70 -80 -88 -94 -148 -242 -284 -324 -148 -0 -0 -0 -0 -0 -158 -65 -148 -164 -132
-36 -0 -29 -14 -48 -19 -8 -4 -26 -16 -37 -45 -54 -80 -84 -57 -55 -107 -211 -227 -311 -0 -0 -0 -0 -0 -0 -0 -0 -0 -0 -0
-9 -1 -6 -10 -0 -0 -0 -5 -24 -33 -32 -30 -72 -26 -24 -72 -71 -93 -140 -202 -0 -0 -0 -0 -0 -0 -0 -0 -0 -0 -0 -0
-4 -4 -0 -1 -0 -0 -14 -26 -27 -18 -7 -9 -5 -32 -23 -57 -97 -141 -215 -1 -0 -0 -0 -0 -0 -0 -0 -0 -0 -0 -0 -0
-4 -42 -5 -0 -0 -1 -41 -71 -27 -19 -2 -2 -47 -77 -36 -68 -121 -144 -215 -1 -0 -1 -0 -0 -0 -0 -0 -0 -0 -0 -0 -0
-6 -6 -71 -104 -59 -75 -52 -74 -74 -34 -7 -2 -31 -31 -28 -49 -105 -147 -0 -2 -0 -0 -0 -0 -0 -0 -0 -0 -0 -0 -0 -0
-56 -92 -46 -0 -0 -0 -0 -0 -0 -64 -7 -2 -10 -18 -19 -32 -63 -118 -0 -0 -0 -0 -0 -0 -0 -0 -0 -0 -0 -0 -0 -0
-62 -57 -93 -130 -0 -0 -0 -0 -0 -0 -71 -3 -1 -6 -6 -16 -27 -54 -54 -0 -0 -0 -0 -0 -0 -0 -0 -0 -0 -0 -0 -0
-4 -107 -152 -0 -0 -0 -0 -0 -0 -0 -0 -56 -1 -1 -1 -1 -8 -16 -51 -1 -0 -0 -0 -0 -0 -0 -0 -0 -0 -0 -0 -0
-140 -115 -192 -0 -170 -4 -0 -0 -0 -0 -0 -0 -124 -1 -1 -0 -1 -8 -12 -52 -50 -0 -0 -0 -0 -0 -0 -0 -0 -0 -0 -0
Wind_Speed
24 28 30 28 40 31 26 25 23 26 16 10 3 6 5 8 26 36 37 29 33 25 9 11 6 3 4 2 3 5 2 5
24 26 33 33 25 39 35 32 30 17 22 18 9 6 1 3 12 22 28 28 18 8 9 10 8 10 8 4 9 8 4 6
24 30 30 31 30 32 37 36 34 25 20 14 3 4 1 2 1 6 15 17 7 6 6 6 7 7 6 3 7 18 11 22
29 29 31 29 33 28 37 37 37 30 27 20 6 4 3 6 8 7 6 7 7 6 5 5 8 8 7 8 10 18 21 23
28 22 25 33 32 35 32 34 36 38 20 8 6 7 6 6 10 11 8 8 9 11 12 2 3 6 11 13 10 10 12 28
26 26 27 33 34 31 32 31 33 26 10 11 11 7 9 9 10 10 13 13 12 15 16 12 9 4 5 9 11 7 5 15
28 32 35 24 31 27 33 32 28 22 18 8 8 8 8 8 11 11 11 12 12 14 15 14 11 6 3 2 2 12 16 17
23 19 21 20 23 27 28 31 32 23 19 12 1 5 8 9 11 12 11 11 11 12 14 15 15 12 6 2 5 2 11 8
22 22 14 22 23 23 24 23 25 25 7 13 10 10 10 11 13 13 13 12 12 11 12 13 12 12 10 9 2 1 2 5
23 22 33 15 14 13 12 15 20 18 15 14 13 12 13 14 15 14 13 13 12 11 11 11 11 11 10 11 10 6 6 5
21 24 21 16 17 20 19 14 15 18 17 15 13 12 15 14 14 14 14 14 13 12 11 11 11 11 9 9 10 9 9 8
25 22 23 20 15 17 17 22 16 17 17 15 14 21 16 12 10 10 10 10 11 10 10 11 11 9 8 9 9 10 11 14
25 27 18 20 13 16 23 19 19 18 16 16 17 16 11 9 8 8 8 8 7 9 10 10 9 10 11 10 11 11 11 12
19 23 26 17 16 18 13 13 15 15 16 15 15 12 11 10 9 9 8 8 9 9 8 7 8 9 11 12 11 12 13 14
20 19 15 16 15 13 14 14 16 16 14 14 15 12 10 10 10 10 9 9 8 8 9 11 11 10 11 10 11 12 13 15
20 17 19 16 15 14 15 16 17 17 16 13 14 11 10 10 10 10 10 10 9 9 10 11 11 12 12 11 12 13 15 16
21 15 14 15 14 13 13 14 15 15 15 14 12 12 10 10 10 10 10 11 11 12 12 12 11 11 10 12 13 15 16 17
19 15 4 19 6 13 12 13 14 14 14 15 14 13 13 11 10 10 9 9 10 12 13 13 13 13 14 15 16 18 19 19
16 17 11 16 13 10 10 12 11 13 14 13 13 13 11 11 10 12 11 12 14 15 14 14 15 16 16 16 18 20 22 22
Wind_Direction
249 247 246 248 242 249 264 269 262 269 287 310 276 265 295 146 166 185 193 165 176 171 166 258 245 211 168 239 108 104 38 315
247 250 247 251 253 243 249 249 255 262 270 283 255 256 229 109 152 163 172 172 162 184 236 232 237 273 261 174 293 307 315 304
249 245 243 244 252 248 250 252 255 262 284 294 277 236 261 352 136 163 163 166 189 230 219 230 241 200 220 199 300 282 291 265
245 254 249 251 247 252 247 249 253 263 275 304 332 295 239 284 280 288 276 249 236 243 227 220 231 228 230 259 279 287 276 270
255 245 248 250 250 247 255 255 254 256 274 309 328 307 278 275 273 268 269 263 264 259 266 242 225 234 265 268 275 291 276 262
250 255 250 245 249 247 249 252 255 264 261 264 266 305 284 274 277 279 265 264 264 263 269 270 275 290 293 287 276 296 311 271
258 258 255 245 244 252 247 252 255 270 274 268 260 276 280 275 275 274 271 264 264 264 272 274 285 284 287 302 342 275 282 283
247 260 260 241 247 248 250 250 252 275 262 301 20 278 276 278 272 271 273 272 269 273 275 277 280 291 286 255 154 154 287 306
246 243 258 250 251 253 254 254 256 265 311 277 296 281 277 278 271 271 272 277 279 280 285 288 293 292 298 302 307 153 332 347
250 261 244 277 280 274 263 262 264 275 280 279 280 288 286 278 272 273 275 276 280 286 290 296 303 305 301 298 294 296 310 338
247 261 268 261 266 272 266 266 279 278 280 286 291 293 285 288 278 274 273 278 283 284 292 299 303 307 305 305 306 302 306 313
248 258 257 263 287 277 282 263 284 285 282 282 285 277 271 289 290 286 285 282 290 294 296 299 301 307 309 315 310 301 305 303
262 258 273 260 293 283 263 271 288 285 285 286 282 288 293 299 302 305 307 311 309 302 302 306 308 308 301 305 305 310 310 310
273 267 259 294 292 281 302 298 298 292 292 292 298 302 289 288 291 295 300 301 303 307 312 322 322 319 307 302 308 307 307 309
273 287 299 300 305 303 303 301 302 300 303 299 296 295 294 291 288 287 289 295 302 303 304 305 306 309 309 308 313 311 309 309
282 285 290 299 303 301 303 305 307 307 307 305 301 304 296 291 288 286 287 288 294 297 297 298 302 306 303 307 310 308 307 304
272 303 301 297 299 308 317 316 317 317 315 312 311 307 303 298 293 290 288 287 287 287 290 293 296 301 310 309 309 303 303 303
235 291 149 275 340 301 315 319 320 322 321 316 312 308 305 301 297 294 291 290 289 287 286 286 290 294 298 302 303 300 299 298
300 301 322 300 309 325 326 323 332 329 331 333 328 324 320 313 306 299 293 288 286 285 285 284 285 287 293 297 297 297 296 297